This is the latest recevied weather packets stored in our database for station/object KB2AHZ. If no packets are shown the sender has not sent any weather packets the latest 10 day(s).
| Time | Temp. | Humidity | Pressure | Rain* | Wind** | Luminosity | Snow |
|---|---|---|---|---|---|---|---|
| 1777984193 | 18.33° C | 69% | 1017 hPa | 0 mm | - | 341 W/m² | - |
| 1777983890 | 17.78° C | 70% | 1016.4 hPa | 0 mm | - | 331 W/m² | - |
| 1777983587 | 17.78° C | 71% | 1016.6 hPa | 0 mm | - | 309 W/m² | - |
| 1777983284 | 17.78° C | 70% | 1016.7 hPa | 0 mm | - | 284 W/m² | - |
| 1777982979 | 17.78° C | 71% | 1016.4 hPa | 0 mm | - | 259 W/m² | - |
| 1777982676 | 17.22° C | 72% | 1016.4 hPa | 0 mm | - | 234 W/m² | - |
| 1777982375 | 17.22° C | 73% | 1016.4 hPa | 0 mm | - | 216 W/m² | - |
| 1777982072 | 16.67° C | 73% | 1016.3 hPa | 0 mm | - | 197 W/m² | - |
| 1777981770 | 16.67° C | 73% | 1016.4 hPa | 0 mm | - | 180 W/m² | - |
| 1777981466 | 16.67° C | 74% | 1016.4 hPa | 0 mm | - | 162 W/m² | - |
| 1777981162 | 16.11° C | 75% | 1016.5 hPa | 0 mm | - | 145 W/m² | - |
| 1777980859 | 16.11° C | 75% | 1016.1 hPa | 0 mm | - | 132 W/m² | - |
| 1777980555 | 15.56° C | 77% | 1016.2 hPa | 0 mm | - | 119 W/m² | - |
| 1777980253 | 15.56° C | 78% | 1016.4 hPa | 0 mm | - | 107 W/m² | - |
| 1777979949 | 15° C | 79% | 1016.3 hPa | 0 mm | - | 95 W/m² | - |
| 1777979643 | 14.44° C | 82% | 1016.4 hPa | 0 mm | - | 68 W/m² | - |
| 1777979340 | 14.44° C | 82% | 1016.4 hPa | 0 mm | - | 38 W/m² | - |
| 1777979037 | 14.44° C | 82% | 1016.1 hPa | 0 mm | - | 35 W/m² | - |
| 1777978734 | 13.89° C | 82% | 1016.2 hPa | 0 mm | - | 32 W/m² | - |
| 1777978430 | 14.44° C | 82% | 1016.2 hPa | 0 mm | - | 28 W/m² | - |
| 1777978126 | 14.44° C | 82% | 1016.2 hPa | 0 mm | - | 25 W/m² | - |
| 1777977824 | 14.44° C | 80% | 1015.8 hPa | 0 mm | - | 21 W/m² | - |
| 1777977520 | 14.44° C | 80% | 1015.9 hPa | 0 mm | - | 18 W/m² | - |
| 1777977218 | 14.44° C | 80% | 1016 hPa | 0 mm | - | 14 W/m² | - |
| 1777976915 | 15° C | 80% | 1015.8 hPa | 0 mm | - | 10 W/m² | - |
* Rain latest hour (hover to see other rain measurements)
** Current wind speed in m/s (hover to see current wind gust speed)